This is the latest recevied weather packets stored in our database for station/object 4S6DRJ-13. If no packets are shown the sender has not sent any weather packets the latest 10 day(s).
| Time | Temp. | Humidity | Pressure | Rain* | Wind** | Luminosity | Snow |
|---|---|---|---|---|---|---|---|
| 1788228987 | 28.89° C | 79% | 1008.8 hPa | 0 mm | 0.89 m/s, 223° | 215 W/m² | - |
| 1788228926 | 28.89° C | 79% | 1008.7 hPa | 0 mm | 1.79 m/s, 312° | 209 W/m² | - |
| 1788228864 | 28.89° C | 79% | 1008.5 hPa | 0 mm | 1.34 m/s, 145° | 200 W/m² | - |
| 1788228816 | 28.89° C | 79% | 1008.7 hPa | 0 mm | 2.24 m/s, 330° | 192 W/m² | - |
| 1788228742 | 28.89° C | 80% | 1008.6 hPa | 0 mm | 1.79 m/s, 326° | 187 W/m² | - |
| 1788228681 | 28.89° C | 81% | 1008.6 hPa | 0 mm | 1.79 m/s, 285° | 198 W/m² | - |
| 1788228620 | 28.89° C | 81% | 1008.5 hPa | 0 mm | 0.45 m/s, 292° | 202 W/m² | - |
| 1788228560 | 28.89° C | 81% | 1008.4 hPa | 0 mm | 1.34 m/s, 251° | 197 W/m² | - |
| 1788228498 | 28.89° C | 82% | 1008.6 hPa | 0 mm | 1.34 m/s, 330° | 194 W/m² | - |
| 1788228437 | 28.89° C | 82% | 1008.5 hPa | 0 mm | 0 m/s | 189 W/m² | - |
| 1788228376 | 28.89° C | 82% | 1008.5 hPa | 0 mm | 0.89 m/s, 291° | 176 W/m² | - |
| 1788228315 | 28.89° C | 82% | 1008.4 hPa | 0 mm | 0.89 m/s, 222° | 169 W/m² | - |
| 1788228254 | 28.89° C | 82% | 1008.5 hPa | 0 mm | 0 m/s | 164 W/m² | - |
| 1788228193 | 28.33° C | 82% | 1008.7 hPa | 0 mm | 0.45 m/s, 146° | 158 W/m² | - |
| 1788228132 | 28.33° C | 83% | 1008.6 hPa | 0 mm | 0.89 m/s, 225° | 155 W/m² | - |
| 1788228071 | 28.33° C | 83% | 1008.5 hPa | 0 mm | 1.34 m/s, 275° | 152 W/m² | - |
| 1788228011 | 28.33° C | 83% | 1008.4 hPa | 0 mm | 0.45 m/s, 273° | 152 W/m² | - |
| 1788227949 | 28.33° C | 83% | 1008.3 hPa | 0 mm | 1.34 m/s, 236° | 149 W/m² | - |
| 1788227888 | 28.33° C | 84% | 1008.6 hPa | 0 mm | 1.34 m/s, 212° | 147 W/m² | - |
| 1788227827 | 28.33° C | 85% | 1008.5 hPa | 0 mm | 1.34 m/s, 324° | 146 W/m² | - |
| 1788227766 | 27.78° C | 86% | 1008.4 hPa | 0 mm | 0.45 m/s, 259° | 145 W/m² | - |
| 1788227705 | 27.78° C | 86% | 1008.5 hPa | 0 mm | 0.45 m/s, 300° | 143 W/m² | - |
| 1788227644 | 27.78° C | 87% | 1008.5 hPa | 0 mm | 0.45 m/s, 296° | 143 W/m² | - |
| 1788227583 | 27.78° C | 87% | 1008.5 hPa | 0 mm | 0.45 m/s, 235° | 144 W/m² | - |
| 1788227523 | 27.78° C | 88% | 1008.4 hPa | 0 mm | 0.45 m/s, 228° | 98 W/m² | - |
* Rain latest hour (hover to see other rain measurements)
** Current wind speed in m/s (hover to see current wind gust speed)